Print

CHIHRRCWA 000
TTAA00 KDVN 172304
HOURLY WEATHER ROUNDUP
NATIONAL WEATHER SERVICE QUAD CITIES IA IL
500 PM CST WED DEC 17 2014

Note: "Fair" indicates few or no clouds below 12,000 feet with no
significant weather and/or obstructions to visibility.

* - These stations are not NWS stations...and not subject to NWS
quality control.  Some stations do not report weather such as fog.

...NORTHEAST IOWA..................................................

  
CITY           SKY/WX    TMP DP  RH WIND       PRES   REMARKS
DECORAH *      PTCLDY    21  14  73 N6        30.25R WCI  14          
WATERLOO       CLEAR     20  14  77 NW5       30.28S WCI  13          
OELWEIN *      PTCLDY    21  16  79 NW6       30.27S WCI  14          
INDEPENDENCE * CLEAR     21  18  86 NW3       30.27S                  
DUBUQUE        CLEAR     19  14  81 N5        30.26R WCI  12          

...SOUTHWEST AND SOUTH CENTRAL WISCONSIN...........................

  
CITY           SKY/WX    TMP DP  RH WIND       PRES   REMARKS
PRAIRIE DU CHI CLEAR     23  15  71 W6        30.29R WCI  15          
BOSCOBEL       CLEAR     22  13  68 NW3       30.28R                  
LONE ROCK      PTCLDY    25  13  60 W7        30.27R WCI  17          
MINERAL POINT* NOT AVBL                                               
MONROE *       NOT AVBL                                               
JANESVILLE *   CLOUDY    25  18  74 NW6       30.25R WCI  18          

...EAST CENTRAL IOWA...............................................

  
CITY           SKY/WX    TMP DP  RH WIND       PRES   REMARKS
MARSHALLTOWN   CLEAR     22  16  78 NW5       30.28R WCI  16          
NEWTON *       NOT AVBL                                               
VINTON *       CLEAR     23  15  71 CALM      30.29R                  
CEDAR RAPIDS   CLEAR     21  15  78 NW6       30.28R WCI  13          
IOWA CITY      CLEAR     24  15  68 NW6       30.31R WCI  17          
MONTICELLO *   CLEAR     23  16  74 NW5       30.27S WCI  17          
CLINTON *      CLEAR     19  12  73 N6        30.30S WCI  11          
DAVENPORT      CLEAR     23  15  71 NW6       30.28R WCI  16          

...NORTHWEST ILLINOIS..............................................

  
CITY           SKY/WX    TMP DP  RH WIND       PRES   REMARKS
FREEPORT *     CLOUDY    22  16  77 NW8       30.28S WCI  12          
ROCKFORD       CLOUDY    24  16  71 NW8       30.28R WCI  15          
SAVANNA *      PTCLDY    23  15  71 N6        30.28S WCI  16          
STERLING/R.F.* MOCLDY    25  14  63 NW7       30.27F WCI  17          
ROCHELLE *     CLOUDY    23  17  77 N10       30.27R WCI  13          
MOLINE         CLEAR     25  15  66 NW9       30.28S WCI  15          
PERU *         NOT AVBL                                               

...SOUTHEAST IOWA AND NORTHEAST MISSOURI...........................

  
CITY           SKY/WX    TMP DP  RH WIND       PRES   REMARKS
KNOXVILLE *    CLEAR     25  16  68 N5        30.27F WCI  19          
OTTUMWA        CLEAR     22  16  78 N6        30.28S WCI  14          
FAIRFIELD *    PTCLDY    25  18  74 NW6       30.29F WCI  18          
WASHINGTON *   CLEAR     25  19  80 NW6       30.30R WCI  18          
MT PLEASANT *  PTCLDY    26  18  71 NW5       30.28F WCI  20          
BURLINGTON     PTCLDY    28  20  71 N6        30.28S WCI  22          
KIRKSVILLE     CLEAR     26  21  81 NE7       30.28R WCI  18          

...WESTERN ILLINOIS................................................

  
CITY           SKY/WX    TMP DP  RH WIND       PRES   REMARKS
MACOMB *       CLEAR     26  21  83 W6        30.30S WCI  19          
GALESBURG *    CLEAR     25  19  79 W7        30.28R WCI  17          
PEORIA         PTCLDY    28  18  66 CALM      30.29R                  
QUINCY         CLEAR     25  18  74 N3        30.30S                  

END...
  

USA.gov is the U.S. government's official web portal to all federal, state and local government web resources and services.